DMSP 5D-2 F13 DEB, 40491

Orbit data source: Space-Track

DMSP 5D-2 F13 DEB, 40491 is space debris in SSO originally from a launch on Fri, 24 Mar 1995 UTC launched from the Air Force Western Test Range (AFWTR). Debris objects in space refer to the collection of defunct objects orbiting the Earth. Examples of debris include non-operational satellites, rocket bodies, and fragments generated from explosions, collisions, or faulty payload assembly.

Loading next visibility...
Identifier
40491, 1995-015CE
Orbit
SSO
Country
Flag of USUS
Related business
Manufacturer
Unknown
Mission
Spacecraft
Bus & Motor
Unknown
Mass
Unknown
Launch date (UTC)
1995-03-24 (31 years ago)
Launch vehicle
Unknown
Launch site
Air Force Western Test Range (AFWTR)
Object type
Payload
Rocket body
Debris
Shape & HBR
Unknown shape, 0.1 m
Radar Cross Section
Small (<0.1 m²)

Expand to show TLE details & history
Last TLE update: 13 hours ago

TLE from 13 hours ago
0 DMSP 5D-2 F13 DEB
1 40491U 95015CE  26035.09553429  .00012731  00000-0  26968-2 0  9998
2 40491  98.5700  89.3793 0021203 172.2241 187.9291 14.59212136569624
Epoch: 2026-02-04T02:17Z
TLE epoch observation values (Epoch: 2026-02-04T02:17:34.162Z)
Latitude
0.00003°
Longitude
-79.28008°
Altitude
713.55 km
Speed
7.491 km/s
True Right ascension
05h 57m 31s
True Declination
0° 00' 00"
Sunlit
Object was in full shadow at epoch
Visualization orbit readout
Latitude
Unknown
Longitude
Unknown
Altitude
Unknown
Speed
Unknown
Apparent Right ascension
Unknown
Apparent Declination
Unknown
Sunlit
N/A
Visualization observer readout
Local Sidereal Time
17:18:41
Azimuth
Unknown
Elevation
Unknown
Doppler factor
Unknown
Orbital elements
Apogee altitude
707.811 km
Perigee altitude
677.826 km
Semi-major axis
7,070.956 km
Eccentricity
0.00212
Inclination
98.57°
RAAN
89.3793°
Arg. of periapsis
172.2241°
True anomaly
187.89567°
Mean anomaly
187.9291°
Eccentric anomaly
187.91238°
Mean motion
3.65028 °/min
Orbital period
98.62 mins
BSTAR
0.0026968
Loading maneuver chart data...
Computing Atmospheric mass density...

Documentation

Showing up to 5 results
|